Home   Weather   Macon   Past weeks

Flag for USA Past Weather in Macon, Georgia, USA — Yesterday and Last 2 Weeks

Now
82 °F

Scattered clouds.


Feels Like: 82 °F
Forecast: 54 / 83 °F
Wind: 12 mph from South

Location: Middle Georgia Regional Airport

Current Time: Apr 26, 2017 at 5:42:31 pm

Latest Report: Apr 26, 2017 at 4:53 pm


Visibility: 10 mi

Pressure: 29.77 "Hg

Humidity: 44%

Dew Point: 58 °F

Location of MaconLocation

Past Weather in Macon — Graph

°F

Macon Temperature Yesterday

Maximum temperature yesterday: 82 °F (at 4:53 pm)
Minimum temperature yesterday: 56 °F (at 6:53 am)
Average temperature yesterday: 67 °F

High & Low Weather Summary for the Past Weeks

 TemperatureHumidityPressure
High89 °F (Apr 21, 2:53 pm)97% (Apr 13, 7:53 am)30.35 "Hg (Apr 13, 7:53 am)
Low53 °F (Apr 12, 5:53 am)26% (Apr 12, 4:53 pm)29.70 "Hg (Apr 23, 4:53 pm)
Average69 °F69%30.04 "Hg
* Reported Apr 11 3:53 pm — Apr 26 3:53 pm, Macon, Weather by CustomWeather, © 2017

Note: Actual official high and low records may vary slightly from our data, if they occured in-between our weather recording intervals... More about our weather records

Advertising

Macon Weather History for the Previous 24 Hours

Scroll right to see more
 ConditionsComfort  
Time TempWeatherWind HumidityBarometerVisibility
3:53 pm
Wed, Apr 26
82 °FPassing clouds.9 mph43%29.79 "Hg10 mi
2:53 pm81 °FPassing clouds.6 mph44%29.80 "Hg10 mi
1:53 pm78 °FPassing clouds.7 mph48%29.82 "Hg10 mi
12:53 pm79 °FSunny.8 mph47%29.83 "Hg10 mi
11:53 am76 °FSunny.10 mph52%29.85 "Hg10 mi
10:53 am73 °FSunny.5 mph57%29.86 "Hg10 mi
9:53 am70 °FSunny.8 mph66%29.86 "Hg10 mi
8:53 am65 °FSunny.3 mph78%29.85 "Hg10 mi
7:53 am57 °FSunny.No wind96%29.82 "Hg10 mi
6:53 am54 °FSunny.No wind93%29.78 "Hg9 mi
5:53 am55 °FClear.No wind93%29.77 "Hg10 mi
4:53 am57 °FClear.No wind90%29.75 "Hg10 mi
3:53 am56 °FClear.No wind93%29.76 "Hg10 mi
2:53 am57 °FClear.3 mph96%29.77 "Hg10 mi
1:53 am59 °FClear.No wind93%29.78 "Hg10 mi
12:53 am60 °FClear.No wind93%29.78 "Hg10 mi
11:53 pm
Tue, Apr 25
62 °FClear.No wind86%29.78 "Hg10 mi
10:53 pm64 °FClear.No wind78%29.77 "Hg10 mi
9:53 pm65 °FClear.No wind81%29.75 "Hg10 mi
8:53 pm70 °FClear.No wind64%29.72 "Hg10 mi
7:53 pm76 °FSunny.6 mph48%29.71 "Hg10 mi
6:53 pm80 °FSunny.10 mph41%29.70 "Hg10 mi
5:53 pm81 °FSunny.12 mph39%29.70 "Hg10 mi
Weather by CustomWeather, © 2017

See weather overviewHow to use our weather pages